RADUGA-1M 2 [+]

Last updated on Nov. 12, 2019, 4:19 a.m. UTC

1 36358U 10002A   19315.48581926 -.00000172  00000-0  00000+0 0  9990
2 36358   0.0276 255.5295 0003766   9.5712  45.1642  1.00271036 35843
UTC
Height (km)
Latitude
Longitude
Inclination
Orbital Period
UTC large
Height (km)
Speed (km/s)
/
Latitude / Longitude
Inclination (degrees)
Orbital Period (minutes)
Azimuth
Elevation
Range (km)
Doppler Factor
iOS Compass Heading
iOS Angle

Next 30 passes for location: Hong Kong

Rise time Rise Azimuth (degrees) Set time Set Azimuth (degrees) Duration Max altitude (degrees)

No matching passes for this satellites